Regional Weather Roundup
Issued by NWS

Home | Current Version | Previous Version | Graphics & Text | Print | Product List | Glossary On
Versions: 1 2 3 4 5 6 7 8 9 10 11 12 13 14 15 16 17 18 19 20 21 22 23 24 25 26 27 28 29 30 31 32 33 34 35 36 37 38 39 40 41 42 43 44 45 46 47 48 49 50
087
ASUS43 KTOP 082008
RWRKS

WEATHER ROUNDUP FOR KANSAS
NATIONAL WEATHER SERVICE GOODLAND KS
200 PM CST MON FEB 08 2016

NOTE:  "FAIR" INDICATES FEW OR NO CLOUDS BELOW 12,000 FEET WITH NO
SIGNIFICANT WEATHER AND/OR OBSTRUCTIONS TO VISIBILITY.

KSZ001>006-013>018-027>032-041>047-082100-
NORTHWEST KANSAS

CITY           SKY/WX    TMP DP  RH WIND       PRES   REMARKS
GOODLAND       CLOUDY    37  16  42 N26G36    30.31F WCI  25
HAYS           SUNNY     39  12  33 NW28G40   30.28F WCI  28
HILL CITY      CLOUDY    37  16  42 NW26G38   30.29F WCI  25
RUSSELL        SUNNY     39  19  44 NW32G38   30.25F WCI  27
$$

KSZ061>065-074>080-084>089-082100-
SOUTHWEST KANSAS

CITY           SKY/WX    TMP DP  RH WIND       PRES   REMARKS
DODGE CITY     SUNNY     41   4  21 N28G41    30.33F
ELKHART          N/A     45  16  31 NW18        N/A
GARDEN CITY    MOSUNNY   43   4  19 N26G33    30.35F
GREAT BEND     SUNNY     41  16  36 NW30G39   30.28F
LIBERAL        SUNNY     48  10  21 N23G32    30.36F
PRATT          SUNNY     40   9  28 NW29G40   30.28F WCI  28
$$

KSZ066>073-081>083-090>101-082100-
SOUTHEAST KANSAS

CITY           SKY/WX    TMP DP  RH WIND       PRES   REMARKS
CHANUTE        CLOUDY    41  17  38 NW23G37   30.11F
COFFEYVILLE    MOSUNNY   44  14  29 NW35G45   30.14F
HUTCHINSON     SUNNY     44  11  26 N33G47    30.22F
MEDICINE LODGE   N/A     45   9  23 NW33G47   30.26F
NEWTON         SUNNY     41  12  30 N33G44    30.19F
PARSONS        PTSUNNY   43  17  35 NW29G46   30.13F
WICHITA INTL   MOSUNNY   45  10  24 N37G48    30.21F
WICHITA JABRA  SUNNY     43  13  29 NW33G44   30.19F
WICHITA MCCONL SUNNY     43  12  28 N28G41    30.19F
WINFIELD       SUNNY     46  12  25 NW31G47   30.22F
$$

KSZ007>012-019>026-033>040-048>060-102>105-082100-
NORTHEAST KANSAS

CITY           SKY/WX    TMP DP  RH WIND       PRES   REMARKS
CONCORDIA      MOSUNNY   37  17  44 NW30G44   30.17F WCI  24
EMPORIA        MOSUNNY   39  15  37 NW29G44   30.12F WCI  27
LAWRENCE       CLOUDY    36  16  44 NW29G45   30.09F WCI  23
MANHATTAN      MOSUNNY   39  15  37 N20G33    30.17F WCI  29
MARYSVILLE     PTSUNNY   34  19  55 N33G40    30.12F WCI  19
OLATHE IND     CLOUDY    33  17  51 NW21G32   30.07S WCI  21
OLATHE EXE     CLOUDY    32  17  54 NW20G30   30.05F WCI  20
SALINA         SUNNY     44  14  29 NW38G47   30.20F
TOPEKA BILLARD FLURRIES  36  15  42 NW29G44   30.11F WCI  23
TOPEKA FORBES  CLOUDY    37  15  40 NW32G43   30.10F WCI  24
$$




USA.gov is the U.S. government's official web portal to all federal, state and local government web resources and services.